Wind_Speed
22 23 24 20 18 16 15 12 10 9 7 5 4 3 2 4 10 12 13 11 8 8 6 5 4 5 5 5 4 5 4 4 7 8 8 8 10 12 13 12 11 10 11
25 25 25 21 18 16 15 13 11 9 7 5 5 4 6 9 12 13 11 11 10 8 6 7 8 8 8 7 5 3 2 5 7 7 7 8 10 12 12 13 13 11 12
25 25 24 21 18 17 15 14 13 10 7 9 6 7 9 12 12 11 9 8 9 9 8 9 8 8 8 6 4 2 4 5 6 8 8 9 10 11 11 12 12 11 10
24 25 23 21 18 18 16 14 13 11 10 8 7 10 11 12 12 11 7 7 9 10 10 10 9 8 7 5 4 4 5 7 8 10 9 9 10 10 10 11 12 11 9
23 24 22 21 19 18 16 14 12 11 10 7 8 10 12 11 12 11 6 8 8 9 10 11 10 9 9 7 7 7 7 6 6 8 9 9 10 12 10 9 8 9 8
23 24 21 21 19 18 16 14 13 9 6 5 8 11 12 12 12 11 7 6 7 9 9 10 10 9 9 8 8 7 7 8 8 8 9 8 8 8 5 5 3 3 1
24 24 22 20 18 18 16 14 11 8 4 2 6 11 14 13 11 9 7 6 7 8 8 8 8 7 6 6 6 6 6 6 7 9 9 7 4 3 1 2 3 5 7
23 23 21 19 18 18 17 15 11 8 4 4 3 6 11 11 10 9 7 5 6 7 7 7 6 5 5 3 2 3 4 5 7 8 8 7 5 1 3 5 7 9 8
20 21 21 18 17 17 17 15 11 8 4 4 4 5 3 3 6 9 7 5 5 5 5 4 3 3 2 1 0 2 4 5 7 8 9 8 5 2 3 6 7 8 4
18 19 20 19 18 17 16 13 10 8 7 4 4 6 7 5 4 3 5 6 6 5 4 3 2 1 0 2 3 3 4 6 8 8 9 9 5 3 4 7 8 7 6
18 17 16 15 18 18 17 14 12 10 8 6 5 5 6 6 6 7 6 5 6 4 3 2 1 2 2 3 5 6 6 7 8 8 9 9 6 2 4 5 6 9 10
18 16 14 14 14 18 18 16 13 12 10 8 6 5 6 6 6 6 6 6 5 3 3 3 3 4 5 6 8 9 9 9 9 9 9 9 6 3 5 6 8 13 16
14 13 13 14 14 17 19 18 14 10 9 9 7 6 6 6 6 6 6 6 5 4 5 5 6 7 8 9 10 11 12 12 12 11 11 10 7 5 9 11 17 20 19
14 10 10 13 14 15 18 17 15 12 9 8 7 7 7 7 7 7 6 7 6 7 7 8 9 10 11 12 13 14 15 15 15 14 13 12 10 10 10 14 15 17 16
14 12 10 10 11 14 15 15 14 11 9 8 8 8 8 7 5 7 7 7 7 8 7 7 8 10 12 13 14 14 15 16 17 17 16 14 13 13 14 16 17 18 18
14 13 11 11 11 12 12 12 10 9 7 8 9 8 9 8 7 7 8 9 9 10 9 9 10 11 13 14 15 15 14 16 18 19 19 17 17 16 16 17 18 18 18
14 11 12 11 13 13 11 11 10 8 8 7 7 9 9 9 9 10 10 11 10 11 12 14 14 15 16 16 18 18 18 17 16 17 19 19 20 19 19 18 19 19 18
15 15 14 15 14 15 13 12 12 11 11 10 9 10 11 12 12 13 13 13 12 13 15 16 18 19 20 21 21 21 22 22 22 21 21 21 21 22 22 21 20 20 20
13 14 16 16 16 16 15 13 14 14 15 14 14 14 14 15 15 16 17 17 16 17 18 19 21 22 24 25 26 27 26 26 25 25 26 25 24 24 25 24 23 22 22
16 14 15 16 14 14 15 18 19 19 19 18 18 18 17 18 19 21 22 22 22 23 24 24 25 26 27 28 31 32 32 31 31 30 30 30 29 29 28 27 26 25 24
20 19 20 20 19 19 19 19 21 22 22 22 21 21 21 23 23 24 24 23 24 26 26 26 27 27 29 29 32 32 29 29 30 30 30 30 29 28 30 29 29 27 26
19 20 21 22 23 23 23 23 23 23 24 24 25 25 25 25 27 28 29 29 28 28 28 27 28 29 30 28 29 32 29 26 30 22 20 20 19 21 24 27 28 28 27
20 21 19 19 19 20 21 23 24 25 26 26 27 27 28 29 28 30 31 32 31 31 30 28 27 25 26 26 26 25 17 17 25 28 23 23 25 24 22 21 23 25 27
20 18 18 18 17 18 19 20 21 23 24 25 26 26 25 25 26 28 29 29 28 28 29 27 25 22 21 22 21 20 21 25 26 19 15 19 17 23 23 25 28 26 23
19 18 17 17 17 17 18 19 20 22 23 24 25 26 27 29 30 31 32 33 33 33 31 28 25 23 21 20 19 15 17 19 19 24 25 22 24 22 23 25 26 27 25
19 17 15 15 15 15 16 16 17 17 17 18 19 19 19 19 18 19 20 20 21 22 21 22 22 22 19 20 17 18 20 20 21 18 22 26 24 25 22 22 23 24 23
Wind_Direction
169 159 161 161 162 165 166 165 167 171 174 172 167 176 131 99 110 103 94 99 89 88 84 92 101 116 125 101 104 93 76 32 15 14 18 33 48 53 57 60 70 80 72
161 160 162 162 161 162 162 160 157 157 160 157 140 132 130 116 121 111 99 88 77 78 94 119 127 124 124 125 129 122 41 19 14 23 52 57 58 58 58 61 66 72 78
163 161 160 161 159 158 156 155 154 150 152 131 118 109 113 119 127 123 110 90 69 68 87 112 128 137 143 146 141 77 42 24 52 62 61 59 61 63 61 63 62 64 71
162 160 160 157 157 156 155 159 158 155 150 133 103 105 114 124 132 124 119 92 66 71 83 100 113 130 136 135 117 90 71 72 78 61 59 60 55 65 65 72 63 64 74
168 160 160 159 161 163 161 160 158 165 154 123 105 114 122 123 133 130 137 95 75 80 86 91 97 105 114 117 101 89 79 77 67 56 53 60 60 66 77 85 84 75 84
168 165 164 164 164 164 166 160 162 169 165 121 117 131 122 118 127 147 127 109 92 95 93 92 95 100 104 102 93 79 70 68 59 51 50 53 66 72 71 96 92 107 99
170 172 169 168 171 168 167 162 177 179 170 95 131 149 141 140 150 142 136 129 115 113 107 103 100 102 102 95 86 72 60 55 41 37 41 40 48 91 330 282 306 288 298
172 176 174 175 177 173 166 178 185 176 153 126 113 158 169 160 164 159 149 136 130 127 122 119 118 121 118 106 68 56 42 40 28 24 24 17 7 311 288 308 305 309 318
174 176 173 180 183 177 174 187 189 187 193 167 142 144 190 224 188 173 166 150 136 123 108 102 106 113 118 122 341 357 8 8 7 5 5 6 11 350 325 340 324 325 345
174 176 182 190 191 183 179 191 194 214 207 183 170 175 168 170 173 184 179 165 157 144 126 120 117 112 9 320 305 315 333 350 352 355 357 1 11 53 287 332 329 348 352
178 181 186 187 196 198 199 190 196 207 203 207 195 196 195 186 185 181 187 194 182 174 166 166 208 261 289 299 303 310 311 323 335 339 344 349 354 111 311 328 322 334 337
180 182 190 193 197 206 207 215 212 213 221 226 225 215 218 212 205 206 206 208 218 211 231 257 285 291 294 297 301 302 302 308 316 322 327 331 336 313 287 287 296 321 332
184 194 197 201 201 203 210 217 227 232 223 230 232 230 229 233 230 228 229 234 245 253 268 276 280 284 291 294 294 295 297 301 305 310 314 315 321 282 285 277 300 315 322
190 194 194 192 196 197 207 217 225 235 238 239 241 243 240 244 245 246 248 251 258 266 273 280 284 287 290 291 291 291 294 295 297 302 304 302 301 288 291 296 301 309 311
200 196 193 194 195 200 205 211 219 229 238 243 244 251 250 259 263 255 250 257 259 265 285 285 290 295 297 294 290 290 288 289 292 297 296 296 295 293 292 297 304 311 317
207 210 208 207 203 206 209 212 214 218 229 241 243 251 254 257 263 269 260 261 264 272 277 284 289 294 295 294 295 301 297 294 295 296 296 295 295 292 290 293 296 303 306
218 221 229 228 226 223 215 213 217 222 234 239 237 241 253 261 270 271 269 268 273 278 278 280 285 289 293 296 296 295 295 299 303 303 302 297 296 295 293 290 291 294 299
236 239 239 235 234 236 237 238 241 243 249 249 248 249 256 264 273 275 277 278 282 281 283 284 287 288 290 292 295 296 293 292 293 296 295 296 296 295 294 292 288 288 290
229 239 235 244 248 247 247 243 247 249 253 256 256 258 260 265 272 275 277 279 281 282 283 286 287 290 294 294 295 294 290 287 286 288 293 294 298 299 297 293 289 285 283
210 215 222 233 241 248 252 251 251 252 256 258 261 264 266 265 269 272 275 280 283 282 283 286 289 291 290 292 295 292 292 290 287 285 286 289 290 291 295 297 292 284 281
218 217 219 225 231 236 241 245 250 254 255 257 260 264 268 270 269 270 274 277 280 281 284 284 286 287 287 289 291 292 293 292 287 288 286 291 291 291 289 291 288 285 280
226 226 228 230 233 237 240 244 247 251 252 254 256 259 262 265 265 267 270 272 274 276 278 278 281 284 284 285 286 292 297 298 301 301 299 297 296 292 293 292 285 279 276
224 224 224 225 229 232 237 243 249 252 256 259 260 261 262 262 264 266 270 272 272 273 274 277 276 278 282 283 282 284 293 289 293 292 294 285 288 286 295 299 299 292 279
215 220 223 226 231 237 242 247 253 258 261 262 261 260 261 264 266 269 270 271 272 273 273 275 276 274 275 284 285 286 292 294 295 298 285 291 285 299 299 299 300 293 287
215 221 227 233 239 243 248 252 258 263 266 267 266 266 264 264 266 268 270 272 273 272 272 272 266 269 273 278 281 289 292 294 292 290 294 304 305 300 298 296 292 286 288
210 218 227 236 245 253 259 263 264 265 265 267 269 272 273 273 272 273 275 276 277 274 273 265 259 259 272 273 275 289 293 296 298 291 295 305 304 309 307 302 303 305 306
Height
1534 1536 1540 1544 1547 1549 1551 1553 1554 1555 1556 1556 1557 1558 1558 1559 1559 1559 1560 1560 1561 1561 1562 1562 1562 1563 1564 1566 1566 1567 1567 1567 1567 1566 1566 1565 1565 1565 1564 1564 1564 1565 1565
1533 1535 1540 1543 1546 1549 1551 1553 1554 1555 1556 1557 1558 1558 1558 1559 1560 1561 1561 1562 1562 1562 1562 1562 1563 1564 1565 1567 1567 1568 1568 1568 1568 1567 1567 1567 1567 1566 1566 1566 1566 1566 1566
1533 1536 1539 1543 1546 1549 1551 1552 1554 1555 1556 1557 1558 1558 1559 1560 1561 1562 1563 1564 1564 1564 1563 1564 1564 1565 1567 1568 1569 1570 1570 1569 1569 1569 1568 1568 1568 1568 1568 1568 1568 1568 1568
1534 1537 1540 1543 1547 1549 1551 1554 1555 1556 1557 1558 1559 1559 1560 1561 1563 1564 1565 1566 1566 1565 1565 1565 1566 1567 1568 1569 1570 1571 1571 1571 1571 1571 1570 1570 1570 1569 1569 1570 1569 1569 1569
1535 1538 1541 1544 1547 1550 1552 1554 1556 1557 1558 1559 1559 1560 1561 1563 1564 1566 1566 1567 1567 1567 1568 1568 1568 1569 1569 1570 1571 1572 1572 1572 1572 1572 1572 1572 1572 1572 1572 1572 1571 1571 1571
1536 1539 1542 1545 1548 1550 1553 1555 1557 1558 1559 1560 1560 1561 1563 1564 1566 1567 1567 1568 1569 1569 1569 1569 1570 1570 1571 1572 1573 1573 1574 1574 1574 1574 1574 1573 1574 1574 1573 1574 1573 1573 1572
1537 1541 1543 1546 1548 1551 1553 1556 1557 1559 1560 1561 1562 1563 1563 1566 1567 1567 1568 1569 1569 1570 1570 1571 1571 1572 1572 1573 1574 1575 1575 1575 1575 1575 1575 1575 1576 1576 1575 1573 1574 1574 1573
1536 1541 1544 1547 1549 1551 1553 1555 1557 1559 1561 1562 1563 1564 1565 1566 1567 1568 1569 1570 1571 1571 1572 1572 1572 1573 1574 1574 1574 1576 1576 1576 1576 1576 1576 1575 1575 1575 1575 1575 1573 1573 1572
1538 1541 1544 1548 1549 1552 1554 1556 1558 1559 1561 1563 1564 1565 1567 1568 1568 1568 1570 1571 1572 1573 1574 1574 1574 1575 1575 1575 1576 1576 1576 1577 1577 1577 1576 1576 1576 1575 1576 1575 1573 1572 1571
1539 1542 1545 1547 1549 1552 1554 1556 1558 1560 1561 1562 1564 1565 1566 1568 1569 1570 1571 1571 1572 1573 1574 1575 1575 1576 1576 1577 1576 1577 1577 1577 1577 1577 1576 1576 1576 1575 1575 1574 1572 1571 1570
1540 1542 1545 1547 1549 1551 1554 1556 1558 1559 1561 1563 1564 1565 1567 1567 1568 1569 1571 1572 1572 1573 1574 1575 1576 1576 1576 1576 1576 1577 1577 1577 1577 1577 1576 1576 1575 1575 1576 1575 1573 1571 1570
1539 1541 1544 1546 1548 1551 1554 1555 1557 1558 1560 1563 1564 1565 1567 1567 1568 1569 1570 1571 1573 1574 1574 1575 1576 1577 1577 1577 1576 1576 1576 1576 1576 1576 1576 1576 1575 1575 1576 1575 1573 1571 1570
1539 1541 1542 1545 1547 1549 1552 1555 1557 1558 1560 1562 1564 1565 1566 1567 1568 1569 1570 1571 1572 1573 1574 1574 1575 1576 1576 1576 1576 1576 1576 1576 1576 1576 1576 1576 1576 1576 1576 1574 1572 1571 1569
1538 1541 1542 1544 1546 1548 1551 1554 1556 1558 1560 1561 1563 1564 1565 1566 1568 1569 1570 1571 1572 1572 1573 1574 1574 1575 1575 1575 1575 1575 1574 1574 1574 1575 1575 1575 1575 1574 1574 1572 1571 1570 1569
1538 1540 1542 1543 1546 1547 1550 1552 1554 1556 1559 1560 1562 1563 1564 1565 1566 1567 1568 1569 1571 1571 1572 1572 1572 1572 1573 1573 1573 1573 1572 1572 1572 1572 1572 1572 1572 1572 1571 1570 1568 1567 1566
1537 1539 1541 1543 1546 1547 1549 1551 1554 1555 1557 1558 1560 1562 1563 1564 1565 1566 1567 1568 1569 1570 1571 1571 1571 1570 1571 1571 1571 1571 1571 1570 1570 1569 1569 1569 1569 1569 1568 1568 1567 1566 1565
1536 1539 1540 1543 1545 1547 1549 1551 1553 1555 1556 1557 1559 1560 1561 1563 1564 1564 1565 1566 1567 1568 1568 1568 1569 1569 1568 1569 1568 1569 1569 1568 1567 1567 1567 1566 1566 1565 1565 1565 1565 1564 1563
1534 1536 1539 1541 1543 1546 1548 1550 1552 1553 1554 1556 1557 1558 1559 1560 1561 1562 1562 1563 1564 1565 1565 1565 1566 1566 1565 1565 1565 1565 1565 1565 1564 1564 1563 1562 1562 1562 1561 1561 1561 1561 1560
1532 1534 1536 1538 1541 1543 1546 1548 1550 1551 1552 1554 1555 1556 1557 1558 1558 1559 1559 1560 1561 1561 1562 1561 1561 1561 1561 1561 1560 1560 1560 1560 1560 1559 1558 1558 1558 1558 1557 1557 1556 1557 1556
1530 1532 1534 1536 1538 1540 1542 1544 1546 1547 1549 1551 1551 1552 1553 1554 1554 1555 1555 1556 1557 1557 1557 1557 1557 1557 1556 1555 1554 1554 1554 1553 1553 1553 1553 1552 1552 1552 1552 1552 1552 1551 1552
1529 1530 1532 1533 1535 1537 1539 1540 1542 1543 1545 1546 1548 1549 1549 1550 1550 1550 1551 1551 1552 1552 1552 1553 1552 1551 1550 1550 1548 1547 1547 1546 1546 1546 1547 1546 1546 1546 1546 1546 1546 1546 1547
1525 1527 1529 1530 1532 1534 1536 1537 1538 1540 1541 1542 1543 1544 1544 1544 1545 1545 1546 1546 1546 1546 1546 1546 1546 1545 1545 1545 1544 1541 1538 1539 1539 1540 1541 1541 1541 1540 1540 1540 1539 1540 1541
1521 1523 1525 1527 1529 1530 1532 1533 1534 1535 1536 1538 1538 1539 1538 1538 1539 1539 1540 1540 1540 1539 1539 1541 1540 1540 1539 1539 1539 1539 1536 1533 1534 1535 1536 1536 1535 1535 1535 1534 1534 1534 1535
1518 1520 1521 1524 1525 1527 1528 1529 1530 1531 1532 1532 1533 1534 1534 1533 1533 1533 1533 1533 1534 1534 1533 1534 1535 1534 1534 1534 1533 1533 1534 1532 1530 1527 1527 1530 1530 1530 1529 1529 1529 1529 1529
1516 1517 1519 1521 1522 1524 1524 1525 1526 1526 1526 1526 1526 1527 1528 1528 1527 1527 1527 1527 1527 1527 1527 1527 1529 1529 1529 1530 1529 1529 1529 1528 1527 1525 1520 1522 1524 1525 1524 1524 1523 1523 1522
1512 1514 1516 1517 1518 1520 1520 1521 1521 1522 1522 1522 1522 1522 1522 1522 1522 1521 1521 1521 1520 1520 1520 1521 1523 1522 1524 1524 1524 1524 1524 1523 1522 1521 1518 1516 1516 1517 1518 1518 1518 1517 1516